Tracking 31032 objects as of 13-Jul-2025
HD Live streaming from Space Station
objects crossing your sky now

CZ-6A DEB

Track CZ-6A DEB now!
10-day predictions


NORAD ID: 55201
Int'l Code: 2022-151VS
Perigee: 601.4 km
Apogee: 704.5 km
Inclination: 98.7 °
Period: 97.6 minutes
Semi major axis: 7023 km
RCS: Unknown
Launch date: November 11, 2022
Source: People's Republic of China (PRC)
Launch site: Taiyaun Space Center, China (TSC)

Note: This is SATELLITE DEBRIS
Your satellite tracking list
Your tracking list is empty




NASA's NSSDC Master Catalog

Two Line Element Set (TLE):
1 55201U 22151VS  25194.11320966  .00013314  00000-0  19100-2 0  9998
2 55201  98.6562 248.7820 0073353 220.0607 139.5177 14.74789063136080
Source of the keplerian elements: AFSPC